Location: Shepherdstown, WV
(39.4326°N, 77.8042°W)
Time: 21:20:48
(UTC-04:00)

Vanguard 1 - Pass Details

Date: 04 August 2021
Orbit: 652 x 3831 km, 34.3° (Epoch: 17 September)

Event Time Altitude Azimuth Distance (km) Brightness Sun altitude
Rises 09:55:55 0° 223° (SW) 3,046 12.4 41.1°
Reaches altitude 10° 09:58:40 10° 208° (SSW) 2,050 11.7 41.6°
Maximum altitude 10:02:08 22° 155° (SSE) 1,422 11.7 42.3°
Drops below altitude 10° 10:05:55 10° 103° (ESE) 2,257 13.1 43.0°
Sets 10:09:08 0° 89° (E) 3,451 13.6 43.6°
